Home   Weather   Bonn   Past weeks
Flag for Germany

Past Weather in Bonn, North Rhine-Westphalia, Germany — Yesterday and Last 2 Weeks

Now
50 °F

Clear.


Feels Like: 46 °F
Forecast: 58 / 54 °F
Wind: 12 mph from Southeast

Location: Koeln / Bonn

Current Time: Oct 19, 2019 at 4:12:38 am

Latest Report: Oct 19, 2019 at 3:50 am


Visibility: 10 mi

Pressure: 29.77 "Hg

Humidity: 82%

Dew Point: 45 °F

Location of BonnLocation

Past Weather in Bonn — Graph

°F

Bonn Temperature Yesterday

Maximum temperature yesterday: 61 °F (at 11:20 am)
Minimum temperature yesterday: 50 °F (at 12:50 pm)
Average temperature yesterday: 55 °F

High & Low Weather Summary for the Past Weeks

 TemperatureHumidityPressure
High75 °F (Oct 13, 2:20 pm)100% (Oct 4, 12:20 pm)30.09 "Hg (Oct 4, 12:20 pm)
Low45 °F (Oct 6, 12:50 am)53% (Oct 14, 5:20 pm)29.65 "Hg (Oct 4, 12:20 pm)
Average56 °F82%29.86 "Hg
* Reported Oct 4 2:20 am — Oct 19 2:50 am, Bonn. Weather by CustomWeather, © 2019

Note: Actual official high and low records may vary slightly from our data, if they occured in-between our weather recording intervals... More about our weather records

Advertising

Bonn Weather History for the Previous 24 Hours

Scroll right to see more
 ConditionsComfort  
Time TempWeatherWind HumidityBarometerVisibility
2:50 am
Sat, Oct 19
50 °FClear.10 mph82%29.77 "Hg10 mi
2:20 am52 °FClear.9 mph77%29.77 "Hg10 mi
1:50 am50 °FClear.9 mph82%29.80 "Hg10 mi
1:20 am50 °FClear.9 mph82%29.80 "Hg10 mi
12:50 am52 °FClear.9 mph77%29.80 "Hg10 mi
12:20 am52 °FClear.10 mph77%29.80 "Hg10 mi
11:50 pm
Fri, Oct 18
52 °FClear.8 mph77%29.80 "Hg10 mi
11:20 pm52 °FClear.8 mph77%29.80 "Hg10 mi
10:50 pm50 °FClear.9 mph82%29.83 "Hg10 mi
10:20 pm52 °FClear.9 mph77%29.83 "Hg10 mi
9:50 pm50 °FClear.8 mph82%29.83 "Hg10 mi
9:20 pm50 °FClear.9 mph76%29.83 "Hg10 mi
8:50 pm52 °FClear.7 mph72%29.83 "Hg10 mi
8:20 pm52 °FClear.9 mph72%29.83 "Hg10 mi
7:50 pm52 °FClear.9 mph72%29.83 "Hg10 mi
7:20 pm52 °FPassing clouds.8 mph72%29.83 "HgN/A
6:50 pm52 °FPassing clouds.7 mph77%29.80 "HgN/A
6:20 pm55 °FPassing clouds.7 mph67%29.80 "HgN/A
5:50 pm57 °FScattered clouds.13 mph63%29.80 "HgN/A
5:20 pm59 °FScattered clouds.13 mph59%29.80 "HgN/A
4:50 pm59 °FScattered clouds.17 mph59%29.77 "HgN/A
3:50 pm59 °FScattered clouds.16 mph59%29.77 "HgN/A
2:50 pm57 °FSprinkles. Passing clouds.14 mph63%29.74 "HgN/A
2:20 pm55 °FSprinkles. Passing clouds.9 mph72%29.74 "HgN/A
1:50 pm54 °FSprinkles. Passing clouds.9 mph82%29.74 "HgN/A
1:20 pm54 °FSprinkles. Passing clouds.10 mph82%29.74 "HgN/A
12:50 pm50 °FRain showers. Broken clouds.17 mph94%29.77 "HgN/A
12:20 pm61 °FScattered showers. Scattered clouds.18 mph72%29.71 "HgN/A
11:50 am61 °FScattered clouds.17 mph72%29.71 "HgN/A
11:20 am61 °FScattered clouds.16 mph72%29.71 "HgN/A
10:20 am59 °FPassing clouds.13 mph82%29.74 "HgN/A
9:50 am59 °FPassing clouds.12 mph82%29.74 "HgN/A
9:20 am57 °FSprinkles. Scattered clouds.14 mph88%29.74 "HgN/A
8:50 am57 °FScattered clouds.10 mph82%29.74 "HgN/A
8:20 am57 °FPassing clouds.13 mph82%29.74 "HgN/A
7:50 am57 °FPassing clouds.13 mph82%29.74 "HgN/A
7:20 am57 °FClear.12 mph82%29.77 "Hg10 mi
6:50 am57 °FClear.16 mph82%29.77 "Hg10 mi
6:20 am55 °FPassing clouds.13 mph88%29.77 "HgN/A
5:50 am55 °FClear.13 mph88%29.77 "Hg10 mi
5:20 am55 °FPassing clouds.9 mph82%29.77 "HgN/A
4:50 am55 °FPassing clouds.8 mph82%29.80 "HgN/A
4:20 am54 °FPassing clouds.7 mph88%29.80 "HgN/A
Weather by CustomWeather, © 2019

See weather overview